Temperature
3 3 3 3 4 4 4 4 3 3 3 4 4 4 4 4 4 4 4 4 5 5 5 5 5 5 5 5 5 5 5 5 5 5 5 5 5 5
2 2 3 3 3 3 3 3 3 3 3 3 4 4 4 4 4 4 4 4 4 4 4 4 4 4 4 4 4 4 4 4 5 4 4 4 4 4
2 2 2 2 2 3 3 3 3 3 3 3 3 3 3 3 4 3 3 3 4 4 4 4 4 4 4 4 4 4 4 4 4 4 4 4 4 4
1 1 1 2 2 2 2 2 2 2 2 2 3 3 3 3 3 3 3 3 3 3 3 3 3 3 3 3 3 3 3 3 3 3 3 3 3 3
1 1 1 1 1 1 2 2 2 2 2 2 2 2 2 2 2 3 2 2 2 3 3 2 2 2 2 2 2 2 2 3 2 2 2 3 3 3
0 0 0 1 1 1 1 1 1 1 1 1 1 2 2 2 2 2 2 2 2 2 2 2 2 2 2 2 2 2 2 2 2 2 2 2 2 2
-0 -0 -0 0 0 0 0 0 1 1 1 1 1 1 1 1 1 1 1 1 1 1 1 1 1 1 2 2 2 1 1 1 1 1 1 1 1 1
-1 -1 -1 -1 -0 -0 -0 -0 -0 -0 -0 -0 0 0 0 1 0 0 0 0 0 1 1 1 1 1 1 1 1 1 1 1 1 1 1 1 1 1
-1 -1 -1 -1 -1 -1 -1 -1 -1 -1 -1 -1 -0 -0 -0 -0 -0 -0 -0 -0 -0 0 -0 0 0 0 0 0 0 0 0 0 0 -0 -0 -0 -0 -0
-2 -2 -2 -2 -1 -2 -2 -1 -1 -1 -1 -1 -1 -1 -1 -1 -1 -1 -1 -1 -1 -1 -1 -1 -0 -0 -0 -0 -0 -0 -0 -1 -1 -1 -1 -1 -1 -1
-2 -2 -2 -2 -2 -2 -2 -2 -2 -2 -2 -2 -2 -2 -2 -1 -1 -1 -2 -2 -2 -1 -1 -1 -1 -1 -1 -1 -1 -1 -1 -1 -1 -1 -1 -1 -1 -1
-3 -3 -3 -3 -3 -3 -3 -3 -2 -2 -2 -2 -2 -2 -2 -2 -2 -2 -2 -2 -2 -2 -2 -2 -2 -2 -2 -2 -2 -2 -2 -2 -2 -2 -2 -2 -2 -2
-3 -3 -3 -3 -3 -3 -3 -3 -3 -3 -3 -3 -3 -3 -3 -2 -2 -2 -3 -3 -3 -3 -2 -3 -3 -3 -3 -3 -2 -2 -2 -2 -2 -2 -2 -2 -2 -2
-4 -4 -4 -4 -4 -4 -4 -4 -4 -4 -4 -4 -4 -4 -3 -3 -3 -3 -3 -3 -3 -3 -3 -3 -3 -3 -3 -3 -3 -3 -3 -3 -3 -3 -3 -3 -3 -3
-4 -4 -4 -5 -5 -5 -4 -4 -4 -4 -4 -4 -4 -4 -4 -4 -4 -4 -4 -4 -4 -4 -4 -4 -4 -4 -4 -4 -4 -4 -4 -4 -4 -4 -4 -4 -4 -4
-5 -5 -5 -5 -5 -5 -5 -5 -5 -5 -5 -5 -5 -5 -5 -5 -4 -4 -4 -4 -4 -4 -4 -4 -4 -4 -4 -4 -4 -4 -4 -4 -4 -4 -4 -4 -4 -4
-6 -6 -6 -6 -6 -6 -6 -6 -6 -6 -6 -6 -6 -6 -5 -5 -5 -5 -5 -5 -5 -5 -5 -4 -5 -5 -5 -5 -5 -5 -5 -5 -5 -5 -5 -5 -5 -5
-6 -6 -6 -6 -6 -6 -6 -6 -6 -6 -6 -6 -6 -6 -6 -6 -6 -6 -6 -6 -6 -5 -5 -5 -5 -5 -5 -5 -5 -5 -5 -5 -5 -5 -5 -5 -5 -5
-7 -7 -7 -7 -7 -7 -7 -7 -7 -7 -7 -7 -7 -7 -7 -7 -7 -6 -6 -6 -6 -6 -6 -6 -6 -6 -6 -6 -6 -6 -6 -6 -6 -6 -6 -6 -6 -6
-8 -8 -8 -8 -8 -8 -8 -8 -8 -8 -8 -8 -8 -8 -8 -7 -7 -7 -7 -7 -7 -7 -7 -6 -6 -6 -7 -7 -7 -6 -6 -6 -6 -6 -6 -6 -6 -6
-9 -9 -9 -9 -9 -9 -9 -9 -9 -8 -8 -8 -8 -8 -8 -8 -8 -8 -7 -7 -7 -7 -7 -7 -7 -7 -7 -7 -7 -7 -7 -7 -7 -7 -7 -7 -7 -7
-9 -9 -9 -9 -9 -9 -9 -9 -9 -9 -9 -9 -9 -9 -9 -8 -8 -8 -8 -8 -8 -8 -7 -7 -7 -7 -7 -7 -7 -7 -7 -7 -7 -7 -7 -7 -8 -7
-10 -10 -10 -10 -10 -10 -10 -10 -10 -10 -9 -9 -9 -9 -9 -9 -9 -9 -8 -8 -8 -8 -8 -8 -8 -8 -8 -8 -8 -8 -8 -8 -8 -8 -8 -8 -8 -8
Wind_Speed
5 5 4 3 3 3 3 4 5 4 4 3 2 3 4 4 4 4 5 6 6 5 5 4 4 4 4 4 4 4 4 4 5 6 7 7 8 7
4 5 4 3 3 3 3 3 3 3 3 3 2 2 4 4 5 4 5 5 6 6 6 5 4 4 4 4 4 4 4 5 5 7 7 8 8 8
5 6 5 4 4 4 3 3 3 3 3 3 1 2 3 3 3 4 4 5 5 6 6 6 6 5 5 6 6 5 5 5 6 7 7 8 8 8
7 7 6 5 5 4 4 4 3 3 3 4 2 2 3 4 3 3 3 4 5 6 7 7 7 7 6 7 7 6 6 6 7 7 7 8 9 9
8 8 7 6 6 5 5 5 4 3 3 4 3 2 2 3 3 3 3 3 5 6 7 6 7 8 8 7 7 7 7 7 7 7 7 8 9 10
8 7 7 8 8 7 6 6 4 3 3 3 3 3 2 2 3 3 3 2 3 4 6 6 7 8 7 8 8 8 8 8 8 8 8 8 9 10
6 6 7 8 8 7 6 6 5 4 4 4 4 3 3 3 4 3 3 2 3 3 3 4 5 6 7 8 8 9 9 9 9 9 9 9 9 9
7 6 6 7 8 8 8 8 7 6 6 5 4 6 5 4 4 3 3 2 3 2 3 4 4 4 6 7 8 8 8 8 9 9 8 8 9 9
7 6 5 6 7 6 6 7 7 8 8 6 6 7 7 6 6 5 5 4 5 3 3 4 3 4 6 8 8 9 8 8 7 7 8 8 9 9
6 7 6 6 6 6 6 5 5 6 7 6 6 6 6 6 7 6 5 3 3 3 3 4 3 4 4 7 8 8 8 7 7 7 8 8 8 9
6 7 7 6 8 8 6 6 5 4 5 6 7 7 7 7 5 3 4 4 4 3 2 2 2 2 3 3 7 8 7 7 8 8 8 8 8 8
4 5 8 8 8 9 7 6 7 5 4 3 3 4 4 5 6 5 5 5 3 3 3 2 2 1 2 2 3 5 7 8 9 8 8 7 7 5
3 3 4 7 8 8 7 6 7 5 4 3 2 2 2 3 4 4 5 4 4 4 3 2 2 2 2 2 2 3 4 5 6 7 7 7 7 5
3 3 4 6 7 7 6 6 6 4 2 2 2 2 3 3 3 4 4 4 5 5 6 4 2 3 3 3 3 2 3 4 4 4 5 7 7 8
2 4 4 5 6 5 5 5 4 3 3 3 3 3 3 3 2 2 2 2 3 4 5 6 3 3 3 3 3 3 3 3 3 3 3 4 4 4
2 2 3 4 3 3 2 2 2 3 3 3 3 2 1 2 2 2 3 2 2 2 3 4 4 4 4 4 4 4 3 3 3 3 4 4 4 5
2 1 1 1 2 2 1 1 2 2 2 2 2 2 2 2 3 2 2 2 3 3 2 1 1 2 3 3 4 4 4 3 3 3 3 4 4 5
2 2 2 2 2 2 2 2 2 2 2 2 2 3 3 3 3 2 2 2 3 3 3 2 1 2 2 3 5 5 4 4 3 3 3 4 5 4
1 1 1 2 2 2 2 2 2 2 2 2 3 3 3 3 3 3 3 3 3 3 3 3 2 2 3 5 3 4 4 3 3 3 3 4 5 6
1 1 0 1 1 1 2 2 2 2 2 2 2 3 3 3 3 3 4 4 3 3 3 3 3 4 5 5 4 4 5 4 3 4 4 4 4 6
1 1 0 0 1 1 1 2 2 2 2 2 2 3 3 3 3 4 4 5 4 3 4 4 4 4 1 1 2 3 3 5 5 4 4 3 4 4
1 1 1 1 1 1 1 1 2 2 2 2 2 2 3 3 4 4 4 3 3 3 4 3 2 2 2 3 4 4 4 4 4 5 5 5 4 4
1 1 1 1 1 1 1 1 2 2 2 2 2 3 3 3 3 3 3 3 3 3 3 2 2 2 3 3 4 4 4 3 2 3 4 6 7 9
Wind_Direction
199 202 203 204 194 185 177 174 175 196 221 224 214 215 213 207 209 211 220 220 222 228 234 239 240 248 259 265 271 280 286 295 302 303 299 303 293 287
197 194 204 207 193 182 183 188 183 187 214 222 223 227 216 221 221 223 231 230 228 229 235 234 232 238 250 256 265 271 279 289 296 297 297 299 297 283
203 197 204 206 200 193 188 191 194 188 220 253 254 230 217 219 233 231 234 235 234 232 238 239 239 241 248 256 260 267 272 281 288 291 292 294 299 285
202 201 204 205 209 197 192 200 207 199 201 233 255 233 237 220 221 231 240 239 239 239 240 242 246 249 251 252 257 263 267 272 278 282 284 290 296 287
204 204 206 202 211 201 197 204 210 209 199 210 237 241 246 220 216 243 246 255 253 246 237 242 254 255 253 254 255 258 263 265 270 273 279 287 293 290
210 208 209 209 211 204 207 208 203 201 194 203 223 231 236 222 204 222 251 261 265 256 242 251 258 256 256 257 256 256 259 261 265 270 275 282 286 289
213 213 216 218 218 210 211 203 197 202 202 205 215 228 232 211 221 220 249 270 278 251 243 253 255 253 252 254 252 255 261 261 262 265 269 275 280 288
209 213 218 226 221 221 225 220 208 203 206 212 217 220 225 221 220 223 232 253 264 237 236 256 240 248 252 248 253 259 262 264 263 262 266 274 281 284
204 208 219 224 217 209 221 226 228 233 228 219 217 222 224 217 211 219 226 236 251 243 241 258 241 248 257 252 253 255 258 262 264 265 270 275 278 281
206 207 213 212 214 208 206 212 225 233 239 235 229 232 232 222 214 221 229 241 275 260 225 247 247 251 266 254 249 250 253 256 259 264 269 273 279 281
213 215 214 210 216 214 207 210 223 239 250 244 245 245 246 243 231 205 204 223 259 259 228 226 243 267 265 251 246 245 250 255 263 268 269 273 280 284
215 213 220 218 215 215 208 205 217 227 225 237 246 252 247 241 234 227 212 219 241 246 211 204 238 258 269 252 241 248 251 258 263 267 271 274 277 281
212 215 220 222 219 218 218 212 221 219 204 208 222 232 236 234 231 234 225 214 225 247 218 200 230 229 236 268 266 252 248 257 261 264 266 271 273 269
218 221 215 216 217 218 222 221 220 214 193 200 216 234 237 238 241 239 243 239 237 244 228 208 217 221 227 257 265 254 258 256 262 271 265 268 269 271
226 226 217 215 217 218 224 221 213 195 191 208 226 243 248 245 242 249 258 253 271 256 231 230 219 221 224 243 247 253 270 265 250 257 263 266 269 270
248 237 230 223 217 214 218 218 205 196 200 213 224 238 243 235 236 234 237 230 249 277 264 242 231 210 228 245 235 250 247 236 245 263 272 277 271 257
181 178 182 194 190 185 190 196 196 204 217 217 221 236 236 237 247 237 232 234 238 248 260 269 286 254 241 238 240 241 241 253 252 257 272 279 273 259
178 163 182 191 196 199 202 211 214 213 213 215 220 230 233 234 245 250 246 234 238 239 240 241 262 305 307 283 236 231 236 250 254 258 265 273 276 271
107 146 176 195 204 204 207 211 224 224 211 213 223 231 235 241 243 243 241 238 240 237 237 227 225 230 262 278 265 227 236 252 257 267 261 265 267 273
56 68 127 188 203 210 218 225 225 220 215 218 225 233 236 242 251 246 241 238 242 245 243 236 229 228 237 251 263 273 252 239 248 258 271 284 280 280
36 19 4 286 250 224 223 220 220 223 224 224 232 237 240 239 248 248 244 251 255 247 242 246 249 252 266 265 274 277 267 254 251 254 259 280 288 286
347 334 324 305 277 256 234 217 216 224 229 232 237 242 247 246 248 248 244 245 250 253 258 261 249 240 243 245 257 268 283 297 295 282 260 257 250 252
313 306 296 291 277 262 243 232 228 238 240 241 243 247 248 249 253 252 248 248 249 251 258 259 258 259 257 247 250 258 263 278 290 303 300 294 277 272
Height
1491 1493 1495 1497 1500 1502 1504 1506 1508 1509 1510 1511 1513 1515 1517 1518 1519 1520 1521 1522 1522 1523 1524 1524 1524 1525 1525 1525 1525 1524 1524 1524 1524 1523 1523 1523 1523 1522
1486 1489 1491 1493 1495 1498 1500 1502 1504 1506 1506 1507 1509 1510 1512 1514 1515 1516 1517 1518 1518 1519 1520 1519 1520 1520 1520 1521 1521 1520 1520 1519 1519 1519 1518 1518 1518 1518
1482 1484 1486 1489 1491 1493 1495 1498 1500 1502 1502 1503 1505 1507 1508 1509 1510 1511 1512 1513 1514 1514 1515 1515 1516 1516 1516 1516 1516 1516 1515 1515 1514 1514 1514 1513 1512 1512
1477 1479 1482 1484 1486 1489 1490 1493 1495 1497 1498 1498 1500 1502 1503 1505 1506 1506 1507 1508 1509 1510 1510 1510 1511 1511 1511 1511 1511 1511 1510 1510 1510 1509 1509 1508 1507 1507
1472 1474 1476 1479 1481 1483 1486 1488 1490 1492 1494 1495 1496 1497 1499 1500 1501 1501 1502 1503 1504 1504 1505 1505 1506 1506 1506 1506 1506 1506 1506 1505 1505 1504 1504 1503 1502 1502
1467 1469 1472 1474 1476 1478 1480 1483 1485 1487 1488 1490 1491 1492 1494 1494 1496 1496 1497 1498 1498 1499 1500 1500 1501 1501 1501 1501 1501 1501 1500 1500 1499 1499 1498 1498 1497 1496
1462 1464 1467 1469 1471 1473 1475 1477 1479 1481 1483 1484 1485 1487 1488 1489 1490 1490 1492 1492 1493 1494 1494 1495 1496 1496 1495 1495 1496 1495 1495 1494 1494 1493 1493 1492 1491 1490
1457 1459 1461 1464 1466 1468 1471 1473 1474 1476 1477 1479 1479 1481 1482 1484 1485 1486 1487 1487 1487 1489 1489 1489 1490 1490 1490 1490 1490 1490 1490 1489 1488 1488 1487 1487 1486 1485
1452 1454 1456 1458 1461 1463 1465 1467 1469 1471 1473 1474 1474 1475 1477 1479 1480 1480 1481 1482 1482 1483 1484 1483 1484 1484 1484 1484 1485 1485 1484 1483 1483 1482 1482 1481 1480 1479
1446 1449 1451 1453 1455 1458 1460 1462 1463 1465 1467 1468 1469 1471 1472 1474 1475 1476 1476 1477 1477 1478 1478 1478 1478 1478 1479 1479 1479 1479 1478 1478 1477 1477 1476 1475 1475 1474
1441 1444 1446 1447 1450 1452 1455 1456 1457 1459 1461 1463 1464 1466 1467 1468 1469 1471 1471 1472 1471 1472 1473 1473 1472 1473 1473 1473 1473 1473 1473 1473 1472 1472 1471 1470 1469 1468
1436 1438 1440 1442 1445 1447 1449 1451 1452 1453 1455 1457 1459 1460 1461 1462 1464 1465 1466 1466 1466 1466 1467 1468 1468 1468 1466 1466 1467 1467 1467 1467 1467 1466 1466 1465 1464 1463
1432 1433 1435 1438 1440 1442 1444 1446 1447 1449 1450 1452 1453 1454 1455 1456 1458 1459 1460 1461 1461 1461 1462 1463 1462 1463 1462 1460 1461 1461 1462 1461 1461 1460 1460 1459 1458 1458
1428 1430 1431 1434 1436 1438 1439 1441 1443 1445 1446 1447 1448 1449 1450 1451 1452 1453 1454 1455 1456 1457 1458 1458 1457 1457 1457 1456 1455 1455 1456 1456 1455 1455 1454 1454 1453 1453
1424 1426 1428 1430 1431 1433 1435 1436 1438 1439 1440 1442 1442 1443 1445 1445 1447 1448 1448 1450 1450 1451 1452 1452 1452 1452 1452 1451 1450 1450 1450 1450 1450 1450 1449 1448 1447 1447
1421 1422 1424 1425 1427 1428 1430 1432 1433 1434 1435 1437 1437 1439 1440 1441 1441 1442 1443 1443 1444 1445 1446 1447 1447 1447 1446 1446 1446 1445 1445 1445 1444 1444 1444 1443 1442 1442
1417 1418 1419 1421 1422 1423 1425 1427 1428 1430 1431 1432 1433 1434 1434 1435 1436 1437 1438 1438 1438 1438 1439 1441 1442 1442 1442 1442 1441 1440 1440 1440 1440 1439 1438 1437 1437 1437
1414 1414 1415 1416 1418 1419 1420 1422 1423 1425 1426 1427 1428 1429 1430 1430 1431 1432 1433 1433 1433 1433 1434 1435 1435 1435 1436 1436 1437 1435 1435 1435 1434 1434 1433 1432 1431 1431
1411 1411 1412 1413 1414 1415 1416 1418 1419 1420 1422 1423 1424 1425 1425 1426 1427 1427 1428 1428 1428 1429 1429 1430 1431 1431 1430 1429 1430 1431 1431 1430 1429 1429 1428 1428 1426 1426
1408 1409 1409 1410 1411 1412 1413 1414 1415 1416 1417 1418 1419 1420 1421 1421 1422 1423 1423 1424 1424 1424 1425 1425 1426 1427 1427 1426 1425 1425 1426 1425 1424 1423 1423 1423 1422 1422
1406 1407 1407 1407 1408 1408 1409 1410 1411 1412 1413 1414 1415 1416 1416 1417 1417 1418 1419 1419 1420 1420 1420 1420 1421 1423 1423 1422 1421 1419 1420 1421 1420 1419 1419 1418 1417 1416
1404 1404 1404 1405 1405 1405 1406 1407 1407 1408 1409 1410 1411 1411 1412 1412 1413 1413 1414 1414 1415 1415 1415 1416 1417 1417 1417 1417 1415 1415 1414 1415 1415 1415 1415 1414 1413 1411
1402 1402 1402 1402 1402 1402 1403 1403 1404 1404 1405 1406 1406 1407 1407 1408 1408 1409 1409 1410 1410 1411 1411 1411 1412 1412 1412 1412 1411 1410 1409 1409 1409 1409 1409 1409 1410 1409